Starlink 30088

operational
NORAD ID: 57462 Int'l Des: 2023-107 Owner: SPXS Country: US Constellation: starlink
LEOCIRCULAR

About Starlink 30088

Description loading...

Live Position

Loading 3D Globe...

Upcoming Passes

Altitude History

Altitude vs Time

uPlot chart will show altitude changes over time

Two-Line Element Set

1 57462U 23107F 25353.85857875 .00000082 00000-0 21149-4 0 9999
2 57462 43.0042 52.8356 0001393 271.1012 88.9671 15.02534480133107
Epoch: Dec 19, 2025 • Age: 16 hours

Current Status

Altitude 570.6 km
Velocity 7.58 km/s
Sub-Earth Point -40.89°S, 69.01°E
Launch Date Jul 28, 2023
Age 2.3 years
Type internet

Technical Details

Classification Payload
Mass 730.00 kg
Dry Mass 700.00 kg
Total Mass 730.00 kg
Length 0.30 m
Diameter 4.10 m
Span 29.00 m
Shape Box + pan
Manufacturer SPXS
Bus Type Starlink V2M
Phase Status In Orbit
Owner/State SPXS/US

Large Constellations

Loading constellations...